When you browse on this site, cookies collect data to enhance your experience and personalize the content and advertising you see.
Visit our Privacy Policy to learn more. By continuing to use the site, you agree to this use of cookies and data.
  • In Austria
  • List of Countries
  • For 7 days
  • Water Temperature
  • Satellite Maps
  • Weather Map
  • News
  • Weather Widgets
  • user-avatar
    Login

    Hourly Weather Igls

    Today, 18 July, Thursday

    Time Temperature Precipitation Wind Pressure Humidity
    00:00 +14°C° 0 mm 1 mps 682 mmHg 94%
    01:00 +14°C° 0 mm 1 mps 683 mmHg 93%
    02:00 +13°C° 0 mm 1 mps 682 mmHg 93%
    03:00 +13°C° 0 mm 1 mps 682 mmHg 93%
    04:00 +13°C° 0 mm 1 mps 682 mmHg 92%
    05:00 +15°C° 0 mm 1 mps 682 mmHg 90%
    06:00 +16°C° 0 mm 1 mps 683 mmHg 88%
    07:00 +19°C° 0 mm 1 mps 683 mmHg 82%
    08:00 +20°C° 0.2 mm 1 mps 684 mmHg 74%
    09:00 +21°C° 0.2 mm 1 mps 684 mmHg 67%
    10:00 +22°C° 0.2 mm 1 mps 684 mmHg 59%
    11:00 +23°C° 0.4 mm 1 mps 684 mmHg 58%
    12:00 +23°C° 0.4 mm 2 mps 684 mmHg 56%
    13:00 +24°C° 0.4 mm 2 mps 684 mmHg 55%
    14:00 +23°C° 0.7 mm 2 mps 685 mmHg 58%
    15:00 +23°C° 0.7 mm 2 mps 685 mmHg 61%
    16:00 +22°C° 0.7 mm 1 mps 685 mmHg 64%
    17:00 +21°C° 0.6 mm 1 mps 685 mmHg 71%
    18:00 +20°C° 0.6 mm 1 mps 684 mmHg 78%
    19:00 +19°C° 0.6 mm 1 mps 684 mmHg 85%
    20:00 +18°C° 0.1 mm 1 mps 684 mmHg 87%
    21:00 +15°C° 0.1 mm 1 mps 684 mmHg 89%
    22:00 +14°C° 0.1 mm 1 mps 685 mmHg 91%
    23:00 +13°C° 0 mm 1 mps 685 mmHg 91%

    Tomorrow, 19 July, Friday

    Time Temperature Precipitation Wind Pressure Humidity
    00:00 +13°C° 0 mm 1 mps 685 mmHg 91%
    01:00 +13°C° 0 mm 1 mps 685 mmHg 91%
    02:00 +13°C° 0 mm 1 mps 685 mmHg 90%
    03:00 +13°C° 0 mm 1 mps 685 mmHg 90%
    04:00 +13°C° 0 mm 1 mps 685 mmHg 89%
    05:00 +14°C° 0 mm 0 mps 685 mmHg 86%
    06:00 +15°C° 0 mm 0 mps 686 mmHg 83%
    07:00 +16°C° 0 mm 0 mps 686 mmHg 80%
    08:00 +19°C° 0 mm 0 mps 686 mmHg 69%
    09:00 +23°C° 0 mm 1 mps 687 mmHg 58%
    10:00 +25°C° 0 mm 1 mps 687 mmHg 48%
    11:00 +26°C° 0 mm 1 mps 687 mmHg 45%
    12:00 +27°C° 0 mm 1 mps 687 mmHg 43%
    13:00 +28°C° 0 mm 1 mps 687 mmHg 40%
    14:00 +27°C° 0.2 mm 1 mps 687 mmHg 45%
    15:00 +26°C° 0.2 mm 1 mps 687 mmHg 50%
    16:00 +25°C° 0.2 mm 2 mps 686 mmHg 55%
    17:00 +24°C° 0.6 mm 1 mps 686 mmHg 66%
    18:00 +22°C° 0.6 mm 1 mps 686 mmHg 77%
    19:00 +19°C° 0.6 mm 0 mps 686 mmHg 89%
    20:00 +19°C° 0.1 mm 1 mps 686 mmHg 90%
    21:00 +18°C° 0.1 mm 1 mps 686 mmHg 92%
    22:00 +15°C° 0.1 mm 1 mps 686 mmHg 93%
    23:00 +15°C° 0 mm 1 mps 686 mmHg 93%

    Day after tomorrow, 20 July, Saturday

    Time Temperature Precipitation Wind Pressure Humidity
    00:00 +15°C° 0 mm 1 mps 686 mmHg 93%
    01:00 +15°C° 0 mm 1 mps 686 mmHg 93%
    02:00 +15°C° 0 mm 1 mps 686 mmHg 92%
    03:00 +15°C° 0 mm 1 mps 686 mmHg 92%
    04:00 +14°C° 0 mm 1 mps 686 mmHg 92%
    05:00 +16°C° 0 mm 1 mps 686 mmHg 89%
    06:00 +19°C° 0 mm 1 mps 687 mmHg 87%
    07:00 +20°C° 0 mm 1 mps 687 mmHg 85%
    08:00 +23°C° 0 mm 1 mps 688 mmHg 73%
    09:00 +26°C° 0 mm 1 mps 688 mmHg 62%
    10:00 +28°C° 0 mm 1 mps 689 mmHg 50%
    11:00 +29°C° 0.2 mm 1 mps 689 mmHg 49%
    12:00 +29°C° 0.2 mm 1 mps 689 mmHg 48%
    13:00 +29°C° 0.2 mm 1 mps 689 mmHg 46%
    14:00 +28°C° 0.8 mm 1 mps 688 mmHg 55%
    15:00 +26°C° 0.8 mm 1 mps 688 mmHg 64%
    16:00 +25°C° 0.8 mm 1 mps 688 mmHg 72%
    17:00 +24°C° 1.1 mm 1 mps 688 mmHg 77%
    18:00 +21°C° 1.1 mm 0 mps 688 mmHg 81%
    19:00 +21°C° 1.1 mm 0 mps 688 mmHg 85%
    20:00 +19°C° 0.1 mm 0 mps 688 mmHg 86%
    21:00 +19°C° 0.1 mm 1 mps 688 mmHg 87%
    22:00 +18°C° 0.1 mm 1 mps 688 mmHg 87%
    23:00 +18°C° 0 mm 1 mps 688 mmHg 87%

    21 July, Sunday

    Time Temperature Precipitation Wind Pressure Humidity
    00:00 +18°C° 0 mm 1 mps 688 mmHg 86%
    01:00 +16°C° 0 mm 1 mps 688 mmHg 85%
    02:00 +16°C° 0 mm 1 mps 688 mmHg 85%
    03:00 +16°C° 0 mm 1 mps 688 mmHg 84%
    04:00 +16°C° 0 mm 1 mps 688 mmHg 83%
    05:00 +19°C° 0 mm 1 mps 689 mmHg 80%
    06:00 +20°C° 0 mm 1 mps 689 mmHg 76%
    07:00 +22°C° 0 mm 1 mps 690 mmHg 73%
    08:00 +24°C° 0.1 mm 1 mps 690 mmHg 65%
    09:00 +26°C° 0.1 mm 1 mps 691 mmHg 58%
    10:00 +28°C° 0.1 mm 1 mps 692 mmHg 51%
    11:00 +28°C° 0.4 mm 1 mps 691 mmHg 51%
    12:00 +28°C° 0.4 mm 2 mps 691 mmHg 51%
    13:00 +29°C° 0.4 mm 2 mps 691 mmHg 51%
    14:00 +28°C° 0.8 mm 2 mps 691 mmHg 57%
    15:00 +27°C° 0.8 mm 2 mps 691 mmHg 63%
    16:00 +26°C° 0.8 mm 2 mps 691 mmHg 69%
    17:00 +25°C° 0.6 mm 1 mps 691 mmHg 75%
    18:00 +24°C° 0.6 mm 1 mps 691 mmHg 82%
    19:00 +23°C° 0.6 mm 1 mps 691 mmHg 88%
    20:00 +21°C° 0 mm 1 mps 691 mmHg 89%
    21:00 +20°C° 0 mm 1 mps 691 mmHg 91%
    22:00 +18°C° 0 mm 1 mps 691 mmHg 92%
    23:00 +18°C° 0 mm 1 mps 691 mmHg 91%

    22 July, Monday

    Time Temperature Precipitation Wind Pressure Humidity
    00:00 +18°C° 0 mm 1 mps 691 mmHg 90%
    01:00 +16°C° 0 mm 1 mps 691 mmHg 89%
    02:00 +16°C° 0 mm 1 mps 691 mmHg 88%
    03:00 +16°C° 0 mm 1 mps 691 mmHg 86%
    04:00 +16°C° 0 mm 1 mps 690 mmHg 85%
    05:00 +19°C° 0 mm 1 mps 691 mmHg 81%
    06:00 +18°C° 0 mm 0 mps 692 mmHg 77%
    07:00 +20°C° 0 mm 0 mps 692 mmHg 73%
    08:00 +23°C° 0 mm 0 mps 692 mmHg 64%
    09:00 +27°C° 0 mm 1 mps 693 mmHg 55%
    10:00 +30°C° 0 mm 1 mps 693 mmHg 47%
    11:00 +30°C° 0 mm 1 mps 693 mmHg 45%
    12:00 +30°C° 0 mm 1 mps 693 mmHg 43%
    13:00 +31°C° 0 mm 1 mps 693 mmHg 41%
    14:00 +30°C° 0.2 mm 2 mps 692 mmHg 47%
    15:00 +29°C° 0.2 mm 2 mps 692 mmHg 53%
    16:00 +29°C° 0.2 mm 2 mps 692 mmHg 59%
    17:00 +27°C° 0.3 mm 2 mps 692 mmHg 67%
    18:00 +26°C° 0.3 mm 1 mps 692 mmHg 75%
    19:00 +25°C° 0.3 mm 1 mps 691 mmHg 83%
    20:00 +23°C° 0 mm 1 mps 691 mmHg 86%
    21:00 +21°C° 0 mm 1 mps 691 mmHg 89%
    22:00 +20°C° 0 mm 1 mps 691 mmHg 92%
    23:00 +19°C° 0 mm 1 mps 691 mmHg 91%

    23 July, Tuesday

    Time Temperature Precipitation Wind Pressure Humidity
    00:00 +19°C° 0 mm 1 mps 691 mmHg 90%
    01:00 +19°C° 0 mm 1 mps 691 mmHg 90%
    02:00 +18°C° 0 mm 1 mps 690 mmHg 89%
    03:00 +18°C° 0 mm 1 mps 690 mmHg 89%
    04:00 +18°C° 0 mm 1 mps 690 mmHg 88%
    05:00 +18°C° 0 mm 0 mps 690 mmHg 84%
    06:00 +19°C° 0 mm 0 mps 690 mmHg 80%
    07:00 +21°C° 0 mm 0 mps 691 mmHg 76%
    08:00 +24°C° 0 mm 0 mps 691 mmHg 65%
    09:00 +28°C° 0 mm 1 mps 691 mmHg 54%
    10:00 +31°C° 0 mm 1 mps 692 mmHg 43%
    11:00 +31°C° 0 mm 1 mps 691 mmHg 39%
    12:00 +32°C° 0 mm 1 mps 691 mmHg 36%
    13:00 +34°C° 0 mm 2 mps 691 mmHg 32%
    14:00 +34°C° 0 mm 2 mps 691 mmHg 34%
    15:00 +32°C° 0 mm 2 mps 690 mmHg 36%
    16:00 +32°C° 0 mm 2 mps 690 mmHg 38%
    17:00 +30°C° 0 mm 2 mps 690 mmHg 50%
    18:00 +28°C° 0 mm 1 mps 689 mmHg 62%
    19:00 +26°C° 0 mm 1 mps 689 mmHg 73%
    20:00 +25°C° 0 mm 1 mps 689 mmHg 79%
    21:00 +23°C° 0 mm 1 mps 689 mmHg 84%
    22:00 +19°C° 0 mm 0 mps 688 mmHg 89%
    23:00 +20°C° 0 mm 1 mps 688 mmHg 88%
    Show more